Baker, MT

11:21 AM MDT on March 28, 2017 (GMT -0600)
Baker Municipal

Weather History for KBHK - January, 2013

Change the Weather History Date:

Sunday, January 6, 2013

  Actual Average Record
Temperature  
Mean Temperature 20 °F -  
Max Temperature 34 °F 38 °F 46 °F (2003)
Min Temperature 5 °F 25 °F -22 °F (2014)
Degree Days  
Heating Degree Days 46    
Moisture  
Dew Point 11 °F    
Average Humidity 66    
Maximum Humidity 84    
Minimum Humidity 48    
Precipitation  
Precipitation 0.00 in - - ()
Sea Level Pressure  
Sea Level Pressure 30.01 in    
Wind  
Wind Speed 5 mph (SW)    
Max Wind Speed 15 mph    
Max Gust Speed -    
Visibility 9 miles    
Events      
Averages and records for this station are not official NWS values.
T = Trace of Precipitation, MM = Missing Value Source: NWS Daily Summary

Daily Weather History Graph

Daily Weather History Graph

Search for Another Location

Airport or City:

Trip Planner

Search our weather history database for the weather conditions in past years. The results will help you decide how hot, cold, wet, or windy it might be!

Date:

Astronomy

Jan. 06, 2013 Rise Set
Actual Time 7:39 AM MST 4:26 PM MST
Civil Twilight 7:05 AM MST 5:01 PM MST
Nautical Twilight 6:27 AM MST 5:38 PM MST
Astronomical Twilight 5:51 AM MST 6:15 PM MST
Moon 1:49 AM MST (1/6) 12:01 PM MST (1/6)
Length of Visible Light 9h 55m
Length of Day
8h 46m
Waning Crescent, 32% of the Moon is Illuminated
Jan 6
Waning Crescent
Jan 11
New
Jan 18
First Quarter
Jan 26
Full
Feb 3
Last Quarter

Hourly Weather History & Observations

Time (MST) Temp. Windchill Dew Point Humidity Pressure Visibility Wind Dir Wind Speed Gust Speed Precip Events Conditions
12:51 AM 7.0 °F - 3.0 °F 84% 30.25 in 10.0 mi Calm Calm - N/A   Clear
1:11 AM 8.6 °F - 3.2 °F 79% 30.10 in 1.8 mi Calm Calm - N/A   Haze
1:20 AM 8.6 °F - 1.4 °F 73% 30.10 in 3.0 mi Calm Calm - N/A   Haze
1:51 AM 6.1 °F - 1.9 °F 83% 30.22 in 10.0 mi Calm Calm - N/A   Clear
3:51 AM 8.1 °F 1.4 °F 3.0 °F 80% 30.17 in 10.0 mi SE 3.5 mph - N/A   Clear
4:51 AM 9.0 °F -0.9 °F 3.0 °F 77% 30.15 in 10.0 mi SE 5.8 mph - N/A   Clear
5:51 AM 5.0 °F -8.1 °F -2.0 °F 73% 30.13 in 10.0 mi ESE 8.1 mph - N/A   Clear
7:51 AM 10.9 °F 1.4 °F 5.0 °F 77% 30.07 in 10.0 mi SE 5.8 mph - N/A   Clear
8:51 AM 12.0 °F 2.7 °F 6.1 °F 77% 30.07 in 10.0 mi SSE 5.8 mph - N/A   Clear
9:51 AM 17.1 °F 11.7 °F 10.0 °F 74% 30.04 in 10.0 mi ESE 3.5 mph - N/A   Clear
10:51 AM 21.9 °F 15.7 °F 14.0 °F 72% 30.01 in 10.0 mi SE 4.6 mph - N/A   Clear
11:51 AM 32.0 °F 25.6 °F 14.0 °F 48% 29.95 in 10.0 mi WSW 6.9 mph - N/A   Clear
12:51 PM 32.0 °F 22.5 °F 15.1 °F 50% 29.92 in 10.0 mi WSW 12.7 mph - N/A   Clear
1:51 PM 33.1 °F 23.0 °F 16.0 °F 50% 29.91 in 10.0 mi WSW 15.0 mph - N/A   Clear
2:51 PM 32.0 °F 25.6 °F 16.0 °F 52% 29.92 in 10.0 mi West 6.9 mph - N/A   Clear
3:51 PM 30.9 °F 20.7 °F 17.1 °F 57% 29.91 in 10.0 mi WSW 13.8 mph - N/A   Clear
4:51 PM 28.0 °F 21.7 °F 16.0 °F 61% 29.92 in 10.0 mi WSW 5.8 mph - N/A   Clear
5:51 PM 26.1 °F 19.4 °F 14.0 °F 60% 29.93 in 10.0 mi NNW 5.8 mph - N/A   Clear
6:51 PM 30.9 °F 20.2 °F 15.1 °F 52% 29.91 in 10.0 mi WSW 15.0 mph - N/A   Partly Cloudy
7:51 PM 30.0 °F 26.5 °F 17.1 °F 59% 29.92 in 10.0 mi West 3.5 mph - N/A   Mostly Cloudy
8:51 PM 32.0 °F 26.4 °F 19.0 °F 59% 29.92 in 10.0 mi West 5.8 mph - N/A   Overcast
9:51 PM 34.0 °F 25.5 °F 19.9 °F 56% 29.91 in 10.0 mi SW 11.5 mph - N/A   Overcast
10:51 PM 33.1 °F 24.9 °F 19.9 °F 59% 29.92 in 10.0 mi West 10.4 mph - N/A   Overcast
11:51 PM 27.0 °F 16.7 °F 17.1 °F 66% 29.92 in 10.0 mi WSW 11.5 mph - N/A   Clear